YAOGAN 16C

导读 | 豆包AI

YAOGAN 16C(遥感十六号C星)是中国于2012年11月25日发射的遥感卫星,隶属于中国“遥感”系列遥感星座,运行于低地近地轨道。作为中国遥感卫星体系的组成部分,它搭载遥感观测设备,可获取地球表面观测数据,服务于国土资源勘查、环境监测保护、农作物估产、防灾减灾、城市规划与空间科学试验等领域,为国家经济社会发展提供地理信息支撑,目前仍保持在轨运行状态。

基本信息
目录编号:
39013
目录名称:
YAOGAN 16C
国际标识:
2012-066C
轨道中心:
EARTH
卫星名称:
YAOGAN 16C
卫星全名:
--
卫星状态:
在轨 (已飞行4857 天)
发射日期:
2012-11-25 UTC
国别 :
中国 (CN)
星等 :
--
轨道信息
数据来源 国际轨道数据 AOE轨道数据
星历时间 2026-03-13T22:33:37+0800
12小时前
查看轨道信息
2026-03-11T05:00:00+0800
3天前
查看轨道信息
半长轴 7467.023km 7467.024km
偏心率 0.0428144 0.0428048
轨道倾角 63.355° 63.355°
近地点辐角 25.640° 25.621°
升交点赤经 176.354° 183.406°
平近点角 336.519° 64.871°
近地点 769.189km 769.262km
远地点 1408.583km 1408.512km
周期 107.024分钟 107.024分钟
每日圈数 13.454934 13.45493
详细信息
使用方式:
暂无
2D轨道图
3D轨道图
轨道高度分析图
轨道倾角分析图
轨道综合分析图
查看轨道综合分析图